Flag for U.S.A. Weather past 2 weeks in Aliso Viejo, California, U.S.A.

Now
62 °F

Light rain. Overcast.


Feels Like: 62 °F
Forecast: 56 / 71 °F
Wind: 9 mph from Northeast

Location: John Wayne Airport-Orange County Airport

Current Time: Jan 26, 2015 at 5:10:18 PM

Latest Report: Jan 26, 2015 at 4:53 PM


Visibility: 8 mi

Pressure: 30.05 "Hg

Humidity: 70%

Dew point: 52 °F

Location of Aliso ViejoLocation

Historic Weather in Aliso Viejo — Graph

°F

Aliso Viejo temperature yesterday

Maximum temperature yesterday: 84 °F (at 12:53 PM)
Minimum temperature yesterday: 55 °F (at 3:53 AM)
Average temperature yesterday: 70 °F

Past Weeks' High & Low Weather Summary

 TemperatureHumidityPressure
High84 °F (Jan 25, 12:53 PM)90% (Jan 20, 1:53 AM)30.25 "Hg (Jan 20, 1:53 AM)
Low49 °F (Jan 15, 5:53 AM)5% (Jan 23, 1:53 PM)29.93 "Hg (Jan 25, 2:53 PM)
Average63 °F52%30.10 "Hg
* Reported Jan 11 3:53 PM — Jan 26 3:53 PM, Aliso Viejo, Weather by CustomWeather, © 2014

Note: Actual official high and low records may vary slightly from our data, if they occured in-between our weather recording intervals... More about our weather records

Advertising

Aliso Viejo weather history for previous 24 hours

 ConditionsComfort  
Time TempWeatherWind HumidityBarometerVisibility
3:53 PM
Jan 26
65 °FLight rain. Overcast.8 mph63%30.04 "Hg9 mi
2:53 PM70 °FLight rain. Mostly cloudy.10 mph38%30.03 "Hg10 mi
1:53 PM72 °FBroken clouds.14 mph38%29.98 "Hg10 mi
12:53 PM78 °FPartly sunny.5 mph20%29.97 "Hg10 mi
11:53 AM80 °FPartly sunny.14 mph19%29.98 "Hg10 mi
10:53 AM77 °FPartly sunny.6 mph24%30.00 "Hg10 mi
9:53 AM74 °FPartly sunny.5 mph31%30.00 "Hg10 mi
8:53 AM72 °FPartly sunny.No wind34%29.98 "Hg10 mi
7:53 AM69 °FPartly sunny.12 mph38%29.98 "Hg10 mi
6:53 AM65 °FPartly sunny.5 mph39%29.96 "Hg10 mi
5:53 AM64 °FOvercast.No wind41%29.96 "Hg10 mi
4:53 AM64 °FPassing clouds.3 mph38%29.96 "Hg10 mi
3:53 AM64 °FClear.No wind35%29.95 "Hg10 mi
2:53 AM64 °FClear.No wind37%29.97 "Hg10 mi
1:53 AM63 °FClear.3 mph38%29.98 "Hg10 mi
12:53 AM63 °FClear.No wind38%29.99 "Hg10 mi
11:53 PM
Jan 25
64 °FClear.No wind34%30.01 "Hg10 mi
10:53 PM65 °FPassing clouds.No wind34%30.03 "Hg10 mi
9:53 PM69 °FPassing clouds.No wind25%30.03 "Hg10 mi
8:53 PM69 °FPassing clouds.No wind24%30.02 "Hg10 mi
7:53 PM71 °FPartly cloudy.5 mph22%30.02 "Hg10 mi
6:53 PM71 °FPassing clouds.No wind22%30.01 "Hg10 mi
5:53 PM71 °FPassing clouds.6 mph27%30.00 "Hg10 mi
Weather by CustomWeather, © 2014

See weather overviewHow to use our weather pages